Time,TemperatureF,DewpointF,PressureIn,WindDirection,WindDirectionDegrees,WindSpeedMPH,WindSpeedGustMPH,Humidity,HourlyPrecipIn,Conditions,Clouds,dailyrainin,SoftwareType,DateUTC
2013-04-27 00:01:00,61.0,31.0,-100.00,South,190,16.0,19.0,33,-99.99,,,0.00,,2013-04-27 06:01:00,
2013-04-27 00:12:00,61.0,31.0,-100.00,South,185,8.0,18.0,33,-99.99,,,0.00,,2013-04-27 06:12:00,
2013-04-27 00:22:00,61.0,31.0,-100.00,South,185,8.0,18.0,33,-99.99,,,0.00,,2013-04-27 06:22:00,
2013-04-27 00:32:00,61.0,31.0,-100.00,South,185,8.0,18.0,33,-99.99,,,0.00,,2013-04-27 06:32:00,
2013-04-27 00:51:00,59.0,30.0,-100.00,SSW,195,9.0,12.0,34,-99.99,,,0.00,,2013-04-27 06:51:00,
2013-04-27 01:01:00,59.0,30.0,-100.00,SSW,195,9.0,12.0,34,-99.99,,,0.00,,2013-04-27 07:01:00,
2013-04-27 01:11:00,58.0,31.0,-100.00,North,-999,0.0,0.0,35,-99.99,,,0.00,,2013-04-27 07:11:00,
2013-04-27 01:21:00,58.0,31.0,-100.00,North,-999,0.0,0.0,35,-99.99,,,0.00,,2013-04-27 07:21:00,
2013-04-27 01:31:00,59.0,31.0,-100.00,South,185,8.0,13.0,35,-99.99,,,0.00,,2013-04-27 07:31:00,
2013-04-27 01:42:00,59.0,31.0,-100.00,South,185,8.0,13.0,35,-99.99,,,0.00,,2013-04-27 07:42:00,
2013-04-27 01:52:00,56.0,29.0,-100.00,North,-999,0.0,0.0,36,-99.99,,,0.00,,2013-04-27 07:52:00,
2013-04-27 02:01:00,56.0,29.0,-100.00,North,-999,0.0,0.0,36,-99.99,,,0.00,,2013-04-27 08:01:00,
2013-04-27 02:11:00,55.0,29.0,-100.00,North,-999,0.0,0.0,36,-99.99,,,0.00,,2013-04-27 08:11:00,
2013-04-27 02:21:00,55.0,29.0,-100.00,North,-999,0.0,0.0,36,-99.99,,,0.00,,2013-04-27 08:21:00,
2013-04-27 02:33:00,55.0,29.0,-100.00,NE,55,2.0,3.0,37,-99.99,,,0.00,,2013-04-27 08:33:00,
2013-04-27 02:41:00,55.0,29.0,-100.00,NE,55,2.0,3.0,37,-99.99,,,0.00,,2013-04-27 08:41:00,
2013-04-27 02:51:00,55.0,29.0,-100.00,SE,125,0.0,3.0,37,-99.99,,,0.00,,2013-04-27 08:51:00,
2013-04-27 03:01:00,55.0,29.0,-100.00,SE,125,0.0,3.0,37,-99.99,,,0.00,,2013-04-27 09:01:00,
2013-04-27 03:11:00,57.0,30.0,-100.00,SSE,150,3.0,8.0,36,-99.99,,,0.00,,2013-04-27 09:11:00,
2013-04-27 03:21:00,57.0,30.0,-100.00,SSE,150,3.0,8.0,36,-99.99,,,0.00,,2013-04-27 09:21:00,
2013-04-27 03:33:00,56.0,30.0,-100.00,SSW,210,6.0,11.0,36,-99.99,,,0.00,,2013-04-27 09:33:00,
2013-04-27 03:42:00,56.0,30.0,-100.00,SSW,210,6.0,11.0,36,-99.99,,,0.00,,2013-04-27 09:42:00,
2013-04-27 03:53:00,57.0,30.0,-100.00,South,185,13.0,15.0,36,-99.99,,,0.00,,2013-04-27 09:53:00,
2013-04-27 04:02:00,57.0,30.0,-100.00,South,185,13.0,15.0,36,-99.99,,,0.00,,2013-04-27 10:02:00,
2013-04-27 04:12:00,57.0,30.0,-100.00,South,185,12.0,18.0,35,-99.99,,,0.00,,2013-04-27 10:12:00,
2013-04-27 04:22:00,57.0,30.0,-100.00,South,185,12.0,18.0,35,-99.99,,,0.00,,2013-04-27 10:22:00,
2013-04-27 04:32:00,57.0,30.0,-100.00,South,185,12.0,18.0,35,-99.99,,,0.00,,2013-04-27 10:32:00,
2013-04-27 04:42:00,57.0,30.0,-100.00,South,185,12.0,18.0,35,-99.99,,,0.00,,2013-04-27 10:42:00,
2013-04-27 04:52:00,57.0,29.0,-100.00,South,185,15.0,20.0,34,-99.99,,,0.00,,2013-04-27 10:52:00,
2013-04-27 05:02:00,57.0,29.0,-100.00,South,185,15.0,20.0,34,-99.99,,,0.00,,2013-04-27 11:02:00,
2013-04-27 05:11:00,57.0,29.0,-100.00,SSW,195,18.0,22.0,34,-99.99,,,0.00,,2013-04-27 11:11:00,
2013-04-27 05:22:00,57.0,29.0,-100.00,SSW,195,18.0,22.0,34,-99.99,,,0.00,,2013-04-27 11:22:00,
2013-04-27 05:31:00,55.0,28.0,-100.00,South,190,12.0,15.0,35,-99.99,,,0.00,,2013-04-27 11:31:00,
2013-04-27 05:41:00,55.0,28.0,-100.00,South,190,12.0,15.0,35,-99.99,,,0.00,,2013-04-27 11:41:00,
2013-04-27 05:52:00,55.0,28.0,-100.00,SSW,200,8.0,13.0,35,-99.99,,,0.00,,2013-04-27 11:52:00,
2013-04-27 06:01:00,55.0,28.0,-100.00,SSW,200,8.0,13.0,35,-99.99,,,0.00,,2013-04-27 12:01:00,
2013-04-27 06:11:00,55.0,28.0,-100.00,South,190,11.0,15.0,35,-99.99,,,0.00,,2013-04-27 12:11:00,
2013-04-27 06:21:00,55.0,28.0,-100.00,South,190,11.0,15.0,35,-99.99,,,0.00,,2013-04-27 12:21:00,
2013-04-27 06:32:00,56.0,29.0,-100.00,South,185,16.0,23.0,36,-99.99,,,0.00,,2013-04-27 12:32:00,
2013-04-27 06:52:00,56.0,29.0,-100.00,South,185,12.0,16.0,36,-99.99,,,0.00,,2013-04-27 12:52:00,
2013-04-27 07:01:00,56.0,29.0,-100.00,South,185,12.0,16.0,36,-99.99,,,0.00,,2013-04-27 13:01:00,
2013-04-27 07:11:00,56.0,29.0,-100.00,South,190,18.0,21.0,36,-99.99,,,0.00,,2013-04-27 13:11:00,
2013-04-27 07:21:00,56.0,29.0,-100.00,South,190,18.0,21.0,36,-99.99,,,0.00,,2013-04-27 13:21:00,
2013-04-27 07:32:00,56.0,30.0,-100.00,SSW,200,16.0,22.0,36,-99.99,,,0.00,,2013-04-27 13:32:00,
2013-04-27 07:41:00,56.0,30.0,-100.00,SSW,200,16.0,22.0,36,-99.99,,,0.00,,2013-04-27 13:41:00,
2013-04-27 07:52:00,56.0,30.0,-100.00,SSW,205,4.0,8.0,36,-99.99,,,0.00,,2013-04-27 13:52:00,
2013-04-27 08:02:00,56.0,30.0,-100.00,SSW,205,4.0,8.0,36,-99.99,,,0.00,,2013-04-27 14:02:00,
2013-04-27 08:11:00,56.0,29.0,-100.00,NE,40,0.0,1.0,36,-99.99,,,0.00,,2013-04-27 14:11:00,
2013-04-27 08:21:00,56.0,29.0,-100.00,NE,40,0.0,1.0,36,-99.99,,,0.00,,2013-04-27 14:21:00,
2013-04-27 08:31:00,57.0,30.0,-100.00,South,190,19.0,26.0,35,-99.99,,,0.00,,2013-04-27 14:31:00,
2013-04-27 08:41:00,57.0,30.0,-100.00,South,190,19.0,26.0,35,-99.99,,,0.00,,2013-04-27 14:41:00,
2013-04-27 08:52:00,57.0,30.0,-100.00,South,185,23.0,28.0,35,-99.99,,,0.00,,2013-04-27 14:52:00,
2013-04-27 09:01:00,57.0,30.0,-100.00,South,185,23.0,28.0,35,-99.99,,,0.00,,2013-04-27 15:01:00,
2013-04-27 09:11:00,57.0,30.0,-100.00,SSW,210,3.0,9.0,35,-99.99,,,0.00,,2013-04-27 15:11:00,
2013-04-27 09:21:00,57.0,30.0,-100.00,SSW,210,3.0,9.0,35,-99.99,,,0.00,,2013-04-27 15:21:00,
2013-04-27 09:33:00,57.0,30.0,-100.00,SSW,205,7.0,12.0,35,-99.99,,,0.00,,2013-04-27 15:33:00,
2013-04-27 09:42:00,57.0,30.0,-100.00,SSW,205,7.0,12.0,35,-99.99,,,0.00,,2013-04-27 15:42:00,
2013-04-27 09:52:00,57.0,30.0,-100.00,South,185,14.0,21.0,35,-99.99,,,0.00,,2013-04-27 15:52:00,
2013-04-27 10:02:00,57.0,30.0,-100.00,South,185,14.0,21.0,35,-99.99,,,0.00,,2013-04-27 16:02:00,
2013-04-27 10:13:00,58.0,31.0,-100.00,South,175,14.0,19.0,35,-99.99,,,0.00,,2013-04-27 16:13:00,
2013-04-27 10:22:00,58.0,31.0,-100.00,South,175,14.0,19.0,35,-99.99,,,0.00,,2013-04-27 16:22:00,
2013-04-27 10:32:00,59.0,31.0,-100.00,South,190,12.0,24.0,34,-99.99,,,0.00,,2013-04-27 16:32:00,
2013-04-27 10:42:00,59.0,31.0,-100.00,South,190,12.0,24.0,34,-99.99,,,0.00,,2013-04-27 16:42:00,
2013-04-27 10:52:00,60.0,31.0,-100.00,South,190,19.0,24.0,34,-99.99,,,0.00,,2013-04-27 16:52:00,
2013-04-27 11:02:00,60.0,31.0,-100.00,South,190,19.0,24.0,34,-99.99,,,0.00,,2013-04-27 17:02:00,
2013-04-27 11:11:00,61.0,32.0,-100.00,South,185,29.0,31.0,33,-99.99,,,0.00,,2013-04-27 17:11:00,
2013-04-27 11:22:00,61.0,32.0,-100.00,South,185,29.0,31.0,33,-99.99,,,0.00,,2013-04-27 17:22:00,
2013-04-27 11:31:00,62.0,32.0,-100.00,SSW,195,18.0,22.0,32,-99.99,,,0.00,,2013-04-27 17:31:00,
2013-04-27 11:42:00,62.0,32.0,-100.00,SSW,195,18.0,22.0,32,-99.99,,,0.00,,2013-04-27 17:42:00,
2013-04-27 11:52:00,63.0,32.0,-100.00,South,180,27.0,33.0,31,-99.99,,,0.00,,2013-04-27 17:52:00,
2013-04-27 12:02:00,63.0,32.0,-100.00,South,180,27.0,33.0,31,-99.99,,,0.00,,2013-04-27 18:02:00,
2013-04-27 12:11:00,64.0,32.0,-100.00,South,190,20.0,24.0,30,-99.99,,,0.00,,2013-04-27 18:11:00,
2013-04-27 12:21:00,64.0,32.0,-100.00,South,190,20.0,24.0,30,-99.99,,,0.00,,2013-04-27 18:21:00,
2013-04-27 12:32:00,64.0,32.0,-100.00,South,185,18.0,25.0,30,-99.99,,,0.00,,2013-04-27 18:32:00,
2013-04-27 12:41:00,64.0,32.0,-100.00,South,185,18.0,25.0,30,-99.99,,,0.00,,2013-04-27 18:41:00,
2013-04-27 12:51:00,64.0,31.0,-100.00,South,190,24.0,32.0,29,-99.99,,,0.00,,2013-04-27 18:51:00,
2013-04-27 13:02:00,64.0,31.0,-100.00,South,190,24.0,32.0,29,-99.99,,,0.00,,2013-04-27 19:02:00,
2013-04-27 13:11:00,65.0,32.0,-100.00,South,190,26.0,32.0,29,-99.99,,,0.00,,2013-04-27 19:11:00,
2013-04-27 13:21:00,65.0,32.0,-100.00,South,190,26.0,32.0,29,-99.99,,,0.00,,2013-04-27 19:21:00,
2013-04-27 13:32:00,66.0,32.0,-100.00,SSW,200,31.0,36.0,28,-99.99,,,0.00,,2013-04-27 19:32:00,
2013-04-27 13:42:00,66.0,32.0,-100.00,SSW,200,31.0,36.0,28,-99.99,,,0.00,,2013-04-27 19:42:00,
2013-04-27 13:52:00,64.0,31.0,-100.00,South,180,30.0,39.0,28,-99.99,,,0.00,,2013-04-27 19:52:00,
2013-04-27 14:02:00,64.0,31.0,-100.00,South,180,30.0,39.0,28,-99.99,,,0.00,,2013-04-27 20:02:00,
2013-04-27 14:11:00,65.0,31.0,-100.00,South,185,35.0,40.0,28,-99.99,,,0.00,,2013-04-27 20:11:00,
2013-04-27 14:21:00,65.0,31.0,-100.00,South,185,35.0,40.0,28,-99.99,,,0.00,,2013-04-27 20:21:00,
2013-04-27 14:32:00,65.0,31.0,-100.00,South,185,35.0,40.0,28,-99.99,,,0.00,,2013-04-27 20:32:00,
2013-04-27 14:41:00,65.0,31.0,-100.00,South,185,35.0,40.0,28,-99.99,,,0.00,,2013-04-27 20:41:00,
2013-04-27 14:52:00,65.0,30.0,-100.00,South,190,34.0,37.0,27,-99.99,,,0.00,,2013-04-27 20:52:00,
2013-04-27 15:02:00,65.0,30.0,-100.00,South,190,34.0,37.0,27,-99.99,,,0.00,,2013-04-27 21:02:00,
2013-04-27 15:11:00,65.0,31.0,-100.00,South,185,35.0,40.0,27,-99.99,,,0.00,,2013-04-27 21:11:00,
2013-04-27 15:21:00,65.0,31.0,-100.00,South,185,35.0,40.0,27,-99.99,,,0.00,,2013-04-27 21:21:00,
2013-04-27 15:32:00,66.0,31.0,-100.00,South,190,39.0,44.0,27,-99.99,,,0.00,,2013-04-27 21:32:00,
2013-04-27 15:42:00,66.0,31.0,-100.00,South,190,39.0,44.0,27,-99.99,,,0.00,,2013-04-27 21:42:00,
2013-04-27 15:53:00,65.0,29.0,-100.00,SSW,200,27.0,31.0,26,-99.99,,,0.00,,2013-04-27 21:53:00,
2013-04-27 16:02:00,65.0,29.0,-100.00,SSW,200,27.0,31.0,26,-99.99,,,0.00,,2013-04-27 22:02:00,
2013-04-27 16:12:00,67.0,31.0,-100.00,SSW,200,26.0,30.0,26,-99.99,,,0.00,,2013-04-27 22:12:00,
2013-04-27 16:22:00,67.0,31.0,-100.00,SSW,200,26.0,30.0,26,-99.99,,,0.00,,2013-04-27 22:22:00,
2013-04-27 16:32:00,66.0,30.0,-100.00,South,190,36.0,42.0,26,-99.99,,,0.00,,2013-04-27 22:32:00,
2013-04-27 16:42:00,66.0,30.0,-100.00,South,190,36.0,42.0,26,-99.99,,,0.00,,2013-04-27 22:42:00,
2013-04-27 16:52:00,66.0,30.0,-100.00,SSW,195,26.0,30.0,26,-99.99,,,0.00,,2013-04-27 22:52:00,
2013-04-27 17:02:00,66.0,30.0,-100.00,SSW,195,26.0,30.0,26,-99.99,,,0.00,,2013-04-27 23:02:00,
2013-04-27 17:11:00,66.0,30.0,-100.00,SSW,200,26.0,29.0,26,-99.99,,,0.00,,2013-04-27 23:11:00,
2013-04-27 17:22:00,66.0,30.0,-100.00,SSW,200,26.0,29.0,26,-99.99,,,0.00,,2013-04-27 23:22:00,
2013-04-27 17:32:00,66.0,30.0,-100.00,South,190,30.0,35.0,26,-99.99,,,0.00,,2013-04-27 23:32:00,
2013-04-27 17:42:00,66.0,30.0,-100.00,South,190,30.0,35.0,26,-99.99,,,0.00,,2013-04-27 23:42:00,
2013-04-27 17:52:00,65.0,30.0,-100.00,South,185,29.0,34.0,26,-99.99,,,0.00,,2013-04-27 23:52:00,
2013-04-27 18:01:00,65.0,30.0,-100.00,South,185,29.0,34.0,26,-99.99,,,0.00,,2013-04-28 00:01:00,
2013-04-27 18:11:00,65.0,30.0,-100.00,SSW,200,27.0,34.0,27,-99.99,,,0.00,,2013-04-28 00:11:00,
2013-04-27 18:21:00,65.0,30.0,-100.00,SSW,200,27.0,34.0,27,-99.99,,,0.00,,2013-04-28 00:21:00,
2013-04-27 18:31:00,65.0,30.0,-100.00,SSW,200,27.0,34.0,27,-99.99,,,0.00,,2013-04-28 00:31:00,
2013-04-27 18:52:00,63.0,30.0,-100.00,SSW,200,30.0,37.0,28,-99.99,,,0.00,,2013-04-28 00:52:00,
2013-04-27 19:01:00,63.0,30.0,-100.00,SSW,200,30.0,37.0,28,-99.99,,,0.00,,2013-04-28 01:01:00,
2013-04-27 19:11:00,63.0,30.0,-100.00,SSW,200,28.0,34.0,29,-99.99,,,0.00,,2013-04-28 01:11:00,
2013-04-27 19:21:00,63.0,30.0,-100.00,SSW,200,28.0,34.0,29,-99.99,,,0.00,,2013-04-28 01:21:00,
2013-04-27 19:31:00,62.0,30.0,-100.00,SSW,200,30.0,36.0,29,-99.99,,,0.00,,2013-04-28 01:31:00,
2013-04-27 19:41:00,62.0,30.0,-100.00,SSW,200,30.0,36.0,29,-99.99,,,0.00,,2013-04-28 01:41:00,
2013-04-27 19:52:00,62.0,30.0,-100.00,South,190,29.0,34.0,29,-99.99,,,0.00,,2013-04-28 01:52:00,
2013-04-27 20:01:00,62.0,30.0,-100.00,South,190,29.0,34.0,29,-99.99,,,0.00,,2013-04-28 02:01:00,
2013-04-27 20:12:00,61.0,30.0,-100.00,SSW,200,20.0,22.0,30,-99.99,,,0.00,,2013-04-28 02:12:00,
2013-04-27 20:21:00,61.0,30.0,-100.00,SSW,200,20.0,22.0,30,-99.99,,,0.00,,2013-04-28 02:21:00,
2013-04-27 20:32:00,61.0,29.0,-100.00,South,190,23.0,26.0,30,-99.99,,,0.00,,2013-04-28 02:32:00,
2013-04-27 20:41:00,61.0,29.0,-100.00,South,190,23.0,26.0,30,-99.99,,,0.00,,2013-04-28 02:41:00,
2013-04-27 20:52:00,60.0,29.0,-100.00,South,190,26.0,30.0,30,-99.99,,,-99.99,,2013-04-28 02:52:00,
2013-04-27 21:01:00,60.0,29.0,-100.00,South,190,26.0,30.0,30,-99.99,,,-99.99,,2013-04-28 03:01:00,
2013-04-27 21:11:00,60.0,29.0,-100.00,South,190,21.0,26.0,31,-99.99,,,0.00,,2013-04-28 03:11:00,
2013-04-27 21:21:00,60.0,29.0,-100.00,South,190,21.0,26.0,31,-99.99,,,0.00,,2013-04-28 03:21:00,
2013-04-27 21:32:00,59.0,29.0,-100.00,South,190,23.0,28.0,31,-99.99,,,-99.99,,2013-04-28 03:32:00,
2013-04-27 21:42:00,59.0,29.0,-100.00,South,190,23.0,28.0,31,-99.99,,,-99.99,,2013-04-28 03:42:00,
2013-04-27 21:53:00,58.0,30.0,-100.00,SSW,200,24.0,27.0,34,-99.99,,,0.00,,2013-04-28 03:53:00,
2013-04-27 22:02:00,58.0,30.0,-100.00,SSW,200,24.0,27.0,34,-99.99,,,0.00,,2013-04-28 04:02:00,
2013-04-27 22:13:00,57.0,30.0,-100.00,SSW,195,24.0,30.0,36,-99.99,,,0.00,,2013-04-28 04:13:00,
2013-04-27 22:22:00,57.0,30.0,-100.00,SSW,195,24.0,30.0,36,-99.99,,,0.00,,2013-04-28 04:22:00,
2013-04-27 22:32:00,56.0,30.0,-100.00,SSW,195,24.0,27.0,36,-99.99,,,-99.99,,2013-04-28 04:32:00,
2013-04-27 22:42:00,56.0,30.0,-100.00,SSW,195,24.0,27.0,36,-99.99,,,-99.99,,2013-04-28 04:42:00,